Wind_Speed
30 29 28 28 28 27 27 28 28 27 27 26 26 26 25 25 24 24 25 25 25 25 25 26 26 26 27 27 28 30 32 33 34 33 33 33 34 34 34 34 33 33 32 32 31 29 29 28 28 28 27 27 27 26 25 25 24 23 22 21 20 20 19 18 17 17 17 17 17
31 31 30 29 28 28 28 28 28 28 28 27 27 26 26 26 26 25 26 26 27 26 26 26 26 26 27 27 28 29 31 32 33 34 33 33 34 34 34 34 34 33 33 32 31 30 30 30 29 29 28 28 27 26 25 25 24 23 23 22 21 20 19 18 18 18 17 17 16
32 31 30 29 29 28 28 28 28 28 28 28 27 27 26 26 26 26 26 28 28 28 27 26 26 27 27 27 28 29 30 31 32 33 34 34 34 34 34 34 34 33 33 32 31 31 31 31 30 30 29 28 28 27 26 25 24 23 23 22 21 20 19 19 18 18 17 16 15
32 31 31 31 31 31 30 29 28 28 28 28 28 27 27 27 27 27 27 28 28 28 28 28 27 27 28 28 28 29 29 30 31 32 33 33 34 34 34 34 34 33 33 32 31 31 31 31 31 30 29 29 28 27 26 25 25 24 23 22 21 20 19 18 18 17 16 15 15
32 32 32 32 32 33 32 30 29 28 28 28 27 27 27 28 28 28 28 28 28 29 29 29 28 28 28 28 28 29 29 30 30 31 32 33 33 33 33 33 33 33 32 32 32 32 32 31 31 30 29 29 28 27 26 26 25 24 23 22 21 20 18 18 17 17 16 15 15
32 32 33 32 32 32 32 31 30 29 28 27 27 28 28 28 28 28 28 28 28 29 29 29 28 28 28 28 28 29 29 30 30 31 31 32 33 33 33 33 33 32 32 32 32 32 32 31 30 30 29 28 27 27 26 26 25 24 23 22 20 19 18 18 18 17 17 16 15
31 32 32 32 32 32 31 31 30 29 28 28 28 29 29 29 28 29 29 29 29 28 28 28 28 28 28 28 28 29 29 30 30 31 31 32 32 32 32 32 32 32 32 32 32 32 31 31 30 30 29 28 27 26 26 26 25 24 22 21 20 19 18 18 18 17 17 16 16
31 31 32 32 32 32 31 31 30 29 29 29 29 30 31 31 30 30 30 29 29 28 28 28 28 28 28 28 29 29 30 30 30 31 31 31 32 31 31 31 31 31 32 32 32 32 31 31 30 30 29 28 27 27 26 25 24 23 22 21 20 19 19 18 18 18 17 16 16
30 30 31 31 31 31 31 31 31 30 30 30 30 31 31 31 31 30 30 29 29 29 28 28 28 28 28 28 29 29 30 30 31 31 31 31 31 31 31 31 31 31 31 31 32 32 31 31 30 30 29 29 28 27 27 25 24 22 21 21 20 19 19 19 18 17 17 16 15
30 30 30 30 31 31 31 31 31 31 32 32 32 32 31 31 32 31 30 29 29 29 28 28 28 28 28 29 29 30 30 31 31 31 31 32 32 32 31 31 31 31 31 31 31 31 31 30 29 29 29 29 28 27 26 25 24 22 21 21 20 20 19 19 18 18 17 16 15
31 30 30 30 30 31 31 31 31 32 32 32 32 32 32 32 32 31 31 30 28 28 29 29 28 28 28 29 29 30 30 30 31 31 31 32 32 32 32 32 32 32 31 31 31 31 31 30 29 28 28 28 27 26 26 25 24 23 22 21 20 20 20 20 19 18 17 16 15
32 31 30 30 30 30 30 31 31 32 32 32 32 32 32 32 32 31 30 29 29 29 29 29 29 29 29 29 29 30 30 30 30 31 31 32 32 32 32 32 32 32 32 32 32 31 31 30 29 29 28 27 27 26 25 25 24 23 22 21 21 21 21 20 19 18 17 16 15
32 31 31 30 30 29 30 30 31 31 32 32 33 32 32 31 31 31 30 30 29 29 29 29 29 29 29 30 29 29 29 30 30 30 31 31 31 31 31 31 31 32 32 32 32 32 31 31 31 30 29 28 27 26 26 25 25 24 23 22 21 21 21 21 20 19 18 17 16
32 32 31 31 30 29 30 30 31 31 31 32 32 32 31 31 31 31 30 30 30 30 29 29 29 30 30 30 30 30 30 29 29 29 30 30 30 30 30 31 31 31 32 32 32 32 32 32 32 31 30 29 28 27 27 26 25 24 23 23 22 22 22 21 20 19 18 18 17
32 32 32 31 31 30 30 30 30 31 31 31 32 32 31 30 30 30 30 30 30 30 29 29 29 29 30 30 29 29 29 29 28 28 28 28 29 29 30 31 31 31 31 31 32 32 32 32 32 31 30 30 29 28 27 26 25 24 23 23 23 22 22 22 21 20 19 18 18
32 32 32 32 31 31 31 31 30 30 30 30 31 31 30 29 29 29 30 30 30 29 29 29 29 29 29 29 29 28 28 28 28 28 28 28 29 30 30 31 31 31 31 31 31 31 31 31 31 31 30 29 29 28 28 27 25 24 23 22 22 22 21 21 20 20 19 19 18
32 33 33 32 32 32 32 32 31 30 30 30 30 30 29 29 28 28 29 29 29 29 29 29 29 29 29 28 28 28 28 28 28 28 28 29 29 30 31 31 31 31 31 31 31 31 30 30 30 29 29 29 28 28 27 26 25 23 23 22 22 21 21 20 20 19 19 19 18
32 33 33 33 33 33 34 33 32 31 30 30 29 29 29 29 28 28 29 29 29 29 29 29 29 29 28 28 28 28 28 28 28 29 29 30 31 31 31 32 32 32 32 31 31 31 30 29 29 28 28 28 28 27 26 25 24 23 23 22 21 21 20 19 19 19 19 18 17
32 32 32 32 33 34 34 34 33 32 31 30 29 29 29 29 29 29 28 28 29 29 29 29 29 29 29 29 29 29 29 29 29 30 30 31 31 32 32 32 31 31 31 31 31 30 30 29 29 28 28 28 27 26 25 24 23 23 22 22 21 20 19 19 18 18 18 17 16
31 31 32 32 33 33 33 34 33 33 32 31 30 29 29 29 29 29 29 29 29 29 29 29 29 29 29 29 29 29 29 30 30 30 31 31 32 32 32 32 31 31 30 30 30 29 29 29 28 28 28 28 27 26 24 23 23 22 22 21 21 20 19 19 18 18 17 16 15
30 30 31 31 31 32 32 33 33 32 32 31 30 29 29 29 29 30 30 30 29 29 29 29 29 29 29 29 29 29 30 30 30 31 31 32 32 32 32 31 31 30 30 30 30 29 29 28 28 28 28 28 27 25 24 23 23 23 22 22 21 20 19 18 18 17 16 15 15
29 29 29 29 29 30 31 31 31 31 31 31 30 30 29 29 29 30 30 30 29 29 29 29 30 30 30 30 30 30 30 30 30 30 31 31 32 32 31 31 30 30 30 30 29 29 29 29 29 29 28 28 26 25 24 24 24 23 23 22 21 20 19 18 17 17 16 15 14
28 28 28 28 28 28 29 29 30 30 30 30 30 30 29 29 29 29 29 29 29 29 29 29 30 30 30 30 30 30 30 30 30 30 31 31 31 30 30 30 30 30 30 30 30 30 29 29 29 29 28 27 26 25 24 24 24 24 24 23 22 20 19 18 17 17 16 15 14
26 27 26 26 26 26 27 28 28 29 29 30 30 29 29 29 29 28 28 28 28 29 29 29 29 29 29 29 30 30 30 30 30 30 30 30 30 29 29 29 29 30 30 30 31 31 31 30 30 29 28 27 25 25 25 24 24 24 24 23 22 21 20 19 18 17 16 16 15
24 25 25 25 25 25 26 26 27 28 29 29 29 29 29 28 28 28 28 27 28 28 28 28 28 28 28 28 29 29 30 31 31 30 30 29 29 29 29 29 29 29 30 31 31 31 31 31 30 29 28 26 25 25 25 25 25 24 24 23 23 22 21 20 19 18 18 17 16
19 21 23 24 24 24 24 25 26 27 28 28 28 28 28 28 28 27 27 27 27 27 27 27 27 27 27 28 28 28 29 30 30 31 31 30 29 29 29 29 29 29 30 31 31 31 31 30 30 29 28 27 26 26 25 25 25 24 24 23 23 22 22 22 21 20 19 18 17
15 17 19 21 22 23 23 24 25 26 27 27 27 27 28 27 27 27 27 27 26 26 26 26 26 26 27 27 27 28 28 29 30 31 31 31 31 30 30 29 30 30 31 31 31 31 30 30 29 28 27 27 27 26 26 26 26 25 24 24 24 24 24 23 23 22 21 19 18
13 14 15 17 19 21 22 23 24 25 26 26 27 27 27 27 26 26 26 26 26 25 25 25 25 26 26 27 27 28 29 30 30 31 31 31 31 31 31 31 31 31 32 32 31 31 30 29 29 28 27 27 27 27 27 26 26 26 25 25 25 25 25 24 24 23 22 21 20
12 12 13 14 17 19 21 22 23 24 25 26 26 26 26 26 26 26 26 25 25 25 25 25 25 25 26 27 28 29 30 30 31 31 31 31 31 31 31 32 32 32 32 32 31 31 30 29 28 28 27 28 27 27 26 26 26 26 26 25 25 25 25 25 24 23 22 22 21
11 11 11 12 14 17 19 21 22 23 24 24 25 25 25 25 25 25 25 25 26 26 26 26 26 26 27 28 29 29 30 31 31 32 32 32 31 31 32 32 32 32 32 32 31 31 30 29 29 28 28 28 28 27 26 26 25 25 25 25 25 25 25 25 24 23 23 22 22
11 11 11 11 13 15 17 19 21 22 23 23 24 24 25 25 25 26 26 26 27 27 27 27 27 27 28 29 30 30 31 32 32 32 32 32 32 32 32 32 32 32 32 32 31 31 30 29 29 28 28 28 28 27 26 26 25 25 25 25 25 25 25 24 23 23 23 23 23
10 10 10 10 12 13 16 18 20 21 22 23 23 24 25 25 26 26 26 27 27 26 26 26 27 28 28 29 30 31 32 32 33 33 33 33 33 33 33 32 32 31 32 32 31 31 30 30 29 29 29 29 29 28 27 26 26 25 25 25 25 24 24 23 23 23 23 23 23
10 10 10 10 11 12 15 17 19 20 21 22 23 24 25 25 25 25 26 26 26 26 27 27 28 29 30 30 31 32 32 33 33 33 33 33 33 33 33 32 31 31 31 31 31 31 30 30 29 29 29 30 29 29 28 27 26 25 25 24 24 24 24 23 23 23 23 23 23
9 9 9 9 10 12 14 16 18 20 21 22 23 24 24 25 25 25 25 25 26 27 28 28 29 30 31 32 32 33 32 33 33 33 32 32 33 33 32 31 30 30 31 31 31 31 30 30 29 29 30 30 30 29 28 27 25 25 25 25 25 24 24 23 23 23 23 23 23
9 9 9 9 9 11 13 16 18 19 20 21 22 23 24 24 25 25 25 25 26 26 27 27 28 29 30 30 32 32 32 32 32 32 32 32 32 32 31 31 30 30 31 31 31 31 31 30 30 30 30 30 30 29 28 26 26 26 26 26 25 25 24 24 24 23 23 23 23
8 8 8 8 9 11 13 15 17 19 20 21 22 22 23 23 24 25 26 26 26 26 26 26 26 27 27 28 29 30 31 32 32 32 32 32 32 31 31 31 30 30 31 32 32 31 31 30 30 30 30 30 29 28 27 26 26 26 26 26 26 25 25 25 24 24 23 23 23
8 7 7 7 8 11 13 15 17 19 20 21 21 22 23 23 24 24 25 25 25 25 25 25 26 26 27 27 28 29 31 32 33 32 32 32 32 31 31 31 31 31 31 32 32 32 31 31 30 30 30 30 29 28 27 27 26 26 26 26 26 25 25 25 24 24 24 23 23
7 7 7 7 8 10 13 15 17 19 20 21 21 22 23 23 24 24 25 26 26 26 26 26 27 27 28 29 30 30 31 32 33 33 33 32 32 32 31 31 31 31 32 32 32 32 32 31 31 31 31 31 30 29 28 27 27 26 25 26 25 25 25 25 25 24 24 23 23
7 6 6 6 8 10 13 16 17 19 20 21 22 22 23 24 24 25 27 27 28 28 28 28 28 28 29 29 29 30 30 31 31 32 32 32 32 32 31 31 31 31 32 32 32 32 32 31 31 31 31 31 30 29 28 28 27 26 25 25 25 25 25 25 25 24 24 23 23
6 6 5 6 7 10 13 16 17 19 20 21 22 23 24 25 25 26 28 28 29 29 29 29 29 29 28 28 28 28 29 29 30 30 31 30 30 30 30 30 30 30 31 32 32 32 32 32 32 32 31 31 30 29 29 28 27 26 25 25 25 26 26 26 25 25 24 23 23
6 5 5 5 7 10 13 15 17 18 19 20 22 23 23 24 25 26 27 28 28 28 28 28 28 28 28 27 27 26 26 26 27 28 28 29 29 29 29 29 29 29 30 31 32 32 32 32 32 32 32 31 30 29 29 29 27 27 26 25 25 26 27 27 26 26 25 24 23
Wind_Direction
221 221 221 222 222 222 223 224 224 224 224 223 222 221 220 218 217 218 219 219 219 220 220 221 221 220 220 221 221 222 222 223 222 223 223 224 225 226 227 227 227 228 228 229 228 227 226 224 224 224 224 225 226 227 227 227 226 226 226 227 228 229 232 235 238 240 241 241 241
221 222 222 222 223 224 225 225 226 225 225 225 224 223 222 220 219 219 220 221 221 222 222 222 222 222 222 222 222 223 223 224 223 223 223 224 225 226 227 227 228 228 228 228 228 226 225 223 222 222 223 224 224 224 225 225 224 224 223 224 226 229 231 235 239 241 242 242 242
222 222 222 222 223 223 224 225 226 226 225 225 225 225 224 223 222 222 223 223 224 223 223 223 223 223 222 222 223 223 224 224 224 224 224 224 225 226 227 227 227 228 228 228 227 226 224 222 221 221 221 221 222 222 221 221 221 221 221 223 226 229 232 236 239 240 240 239 238
222 222 222 223 223 223 224 225 226 226 226 226 226 226 226 226 225 225 225 226 226 225 224 224 224 223 223 223 223 223 224 225 225 224 224 224 225 226 226 227 227 227 227 227 226 225 224 222 221 220 220 220 220 220 219 220 220 220 221 223 227 230 235 238 240 239 237 234 233
222 222 223 223 224 224 225 226 226 227 227 226 226 226 226 227 227 226 226 226 226 226 226 225 225 225 224 223 223 223 224 225 225 224 224 224 225 225 226 226 226 226 226 225 225 224 223 221 220 219 219 219 219 218 218 220 220 220 221 224 228 232 236 237 238 236 232 229 228
223 223 224 225 225 226 226 227 227 228 228 227 226 226 226 227 227 226 226 226 227 227 227 226 226 225 225 224 223 223 223 224 224 224 224 224 224 224 225 224 224 224 224 224 223 222 221 220 218 217 217 216 216 216 217 219 220 220 222 224 228 232 235 235 234 231 228 225 225
224 225 225 226 226 227 227 228 228 229 229 228 227 227 227 227 226 227 227 227 228 227 227 226 226 225 224 224 223 223 223 223 224 224 223 223 223 223 223 223 223 223 223 222 221 220 219 218 215 214 214 214 213 214 216 218 219 221 222 224 228 231 232 231 231 228 225 224 225
226 226 227 227 227 228 228 228 228 228 229 229 228 228 228 228 228 228 228 228 227 227 226 226 225 225 224 224 223 223 222 223 223 223 222 222 222 222 222 221 221 221 221 221 219 218 217 216 214 213 213 212 212 213 215 217 219 220 222 223 226 229 229 228 227 225 224 224 226
228 228 228 228 228 229 229 229 229 229 229 229 230 230 230 229 229 229 228 227 227 227 226 225 225 225 224 224 223 223 223 222 222 222 221 221 220 220 220 219 219 219 219 219 218 217 215 213 212 212 212 213 212 214 215 217 217 219 221 223 224 226 226 224 223 222 223 225 226
228 229 229 229 229 229 230 230 230 230 230 230 231 231 231 230 230 229 228 228 228 227 226 225 225 224 223 223 223 223 223 222 222 221 220 220 219 219 219 218 217 217 216 216 215 214 213 210 209 210 212 213 213 214 216 217 217 218 220 222 224 223 221 220 219 219 221 223 224
229 229 230 230 230 230 230 230 230 230 231 231 232 232 231 231 230 230 229 229 227 226 225 225 224 223 222 222 222 222 223 223 222 221 219 219 218 218 218 218 217 216 215 214 213 211 210 208 208 209 210 212 213 214 215 217 217 217 219 222 223 222 219 217 216 217 219 220 221
230 230 231 231 231 231 230 230 230 230 231 231 231 231 231 231 231 230 229 228 226 225 226 226 224 223 223 222 222 222 222 222 221 220 219 218 218 218 217 217 216 215 214 213 212 210 208 207 208 209 210 211 213 214 215 216 216 217 218 221 222 220 217 215 215 215 216 217 218
231 231 232 232 232 231 230 230 230 230 231 231 231 231 231 231 231 230 228 227 226 226 225 225 225 224 223 222 221 221 220 220 220 219 219 218 217 216 216 216 215 214 213 213 212 210 208 208 209 209 210 212 213 214 215 216 217 217 218 220 221 219 216 214 214 214 214 214 216
232 232 232 232 232 232 231 230 231 231 231 231 231 231 231 230 230 229 228 226 226 225 224 224 224 224 223 222 221 220 220 219 218 218 218 217 216 215 214 214 214 213 213 212 212 210 209 209 209 210 211 213 214 215 216 217 218 219 220 222 220 218 215 214 214 214 213 213 215
232 232 233 233 232 232 231 231 231 231 231 231 231 231 230 230 229 229 227 226 225 224 224 223 222 223 223 222 221 220 219 218 216 216 215 215 214 214 214 214 214 213 212 212 211 211 210 210 211 212 212 213 215 216 217 217 218 220 223 225 223 220 216 214 214 214 214 215 215
233 233 233 232 232 232 231 231 232 232 232 231 231 230 229 228 228 228 226 225 224 223 222 221 221 222 222 221 220 218 217 216 215 214 213 213 212 213 214 214 214 213 212 211 211 210 211 211 212 213 214 215 216 217 217 218 218 221 223 225 224 221 218 216 216 216 217 218 217
233 233 233 232 232 232 232 232 232 232 232 231 231 229 228 226 226 226 225 224 223 221 221 221 221 220 219 218 217 216 214 213 212 212 212 212 212 213 214 215 214 214 213 212 211 210 210 210 212 213 215 216 217 218 218 218 219 221 222 222 221 219 218 218 218 219 219 220 220
233 233 233 232 232 232 232 232 232 232 232 231 230 229 227 225 224 224 224 223 221 220 219 219 220 219 218 216 215 213 212 211 211 211 212 212 213 214 215 215 215 214 213 213 212 211 210 209 210 212 214 216 217 218 218 218 218 220 221 219 218 217 218 219 220 221 221 220 221
233 233 233 232 232 232 232 232 231 232 232 231 230 228 226 225 223 222 222 221 220 219 218 218 218 217 217 215 213 212 211 211 211 212 213 213 214 215 216 216 215 214 213 213 212 211 210 210 210 211 212 214 216 217 217 217 218 219 218 217 216 216 217 219 220 222 222 222 221
235 234 233 233 232 232 232 232 232 232 231 231 229 227 225 223 222 221 220 219 219 218 218 217 216 215 214 213 212 211 211 211 212 212 213 213 214 215 215 215 214 213 212 212 211 210 210 209 210 211 213 214 215 215 215 215 216 216 215 214 214 215 216 218 220 221 221 221 221
238 237 236 235 234 234 233 233 232 232 231 230 228 226 224 223 221 220 219 219 218 217 216 215 215 213 212 211 210 210 211 212 212 212 212 213 213 214 215 214 212 211 211 210 210 209 209 209 210 212 214 215 215 215 214 214 213 212 212 211 212 213 216 218 219 219 219 218 219
243 242 241 239 238 236 235 234 233 232 230 229 227 226 224 222 220 219 219 218 217 215 214 214 213 212 210 210 210 210 211 211 211 211 211 211 212 213 213 212 210 209 209 208 208 208 208 209 211 213 214 215 215 215 214 213 211 210 209 209 210 212 214 215 216 216 216 216 216
248 248 246 245 243 241 238 236 234 232 230 228 226 224 222 220 219 218 217 216 215 213 212 212 211 211 210 210 211 210 210 209 209 209 210 210 210 210 209 209 208 208 208 207 207 207 207 209 211 214 216 216 215 214 213 212 210 208 207 208 209 209 211 211 212 212 212 212 213
253 252 251 249 247 245 241 238 234 231 229 227 225 222 220 219 217 215 214 213 212 211 211 210 209 209 209 209 209 209 209 208 206 206 206 207 207 207 206 207 207 207 208 208 208 209 209 210 212 214 216 216 214 212 211 210 209 208 208 208 208 207 207 207 207 207 208 208 208
259 256 254 253 250 248 244 239 235 231 228 226 224 221 219 216 214 212 211 210 210 209 208 207 207 206 206 206 207 208 208 207 206 205 204 204 205 205 205 205 205 206 207 208 209 211 212 214 215 216 215 214 211 210 209 209 209 209 209 209 208 206 203 202 202 203 204 205 204
265 261 258 255 253 249 245 240 235 231 228 225 222 219 216 214 212 210 208 207 207 206 205 204 203 203 202 202 203 204 206 207 207 206 204 203 203 203 204 204 204 205 207 209 210 211 213 216 217 218 217 213 209 207 206 207 208 209 210 210 208 205 202 199 199 200 202 203 202
274 268 262 258 254 250 245 240 236 231 227 223 220 217 214 212 209 207 206 204 203 202 202 201 200 200 200 200 201 201 203 205 207 207 206 205 204 203 203 204 205 206 208 209 210 211 213 215 217 218 217 213 210 207 205 205 206 208 209 209 208 206 203 200 199 198 199 199 199
283 277 270 263 256 250 246 240 234 229 225 221 218 215 212 209 206 204 202 201 199 198 197 197 197 197 198 199 199 201 203 205 207 207 208 207 206 205 205 205 207 208 209 210 210 211 212 213 215 216 215 213 210 208 207 205 205 206 207 207 207 206 204 203 201 199 197 196 196
289 284 276 268 259 252 245 239 232 227 223 219 216 213 209 206 203 201 199 197 195 193 192 193 193 194 196 197 199 201 204 206 207 208 207 207 206 206 206 207 208 210 210 210 210 210 210 212 213 213 212 212 210 208 206 205 205 205 205 205 205 204 204 203 202 200 197 195 193
293 289 282 273 262 253 245 237 231 225 221 216 213 209 205 202 200 197 195 193 192 192 192 192 192 193 195 197 199 201 203 205 207 208 207 205 205 205 207 209 209 210 210 209 208 208 209 210 211 210 209 209 208 206 205 205 205 204 203 203 203 203 203 203 202 200 197 195 192
297 294 288 278 266 254 244 236 229 223 217 213 208 204 201 198 196 195 194 193 193 193 193 192 192 194 196 199 200 201 203 205 207 207 206 206 205 206 207 209 209 209 208 207 207 207 207 208 208 207 206 206 206 205 205 205 205 204 203 203 203 203 204 204 204 202 200 197 193
300 299 294 283 269 254 243 233 225 219 213 208 204 200 198 196 195 195 194 193 192 190 190 191 193 195 197 199 200 202 204 205 206 207 207 206 206 207 208 208 208 208 207 206 205 205 206 205 204 204 204 204 204 205 206 206 206 206 206 206 206 206 206 206 206 205 203 201 198
304 303 300 289 272 255 240 229 221 214 208 204 200 198 196 194 193 192 191 191 190 190 190 192 195 197 198 200 201 203 204 205 206 207 207 207 207 207 207 206 206 206 205 204 204 204 204 203 202 201 202 203 204 205 207 207 207 207 207 208 210 210 210 209 209 208 207 205 203
308 308 304 292 273 253 237 225 216 209 203 199 197 195 193 191 189 188 188 189 190 192 195 198 199 201 202 203 203 203 203 205 206 206 206 206 206 206 205 204 205 205 204 203 203 203 202 201 200 199 200 201 203 205 206 207 206 206 207 208 209 210 210 210 211 211 210 208 206
312 311 307 294 272 250 233 220 210 204 198 194 192 191 190 189 188 187 188 189 192 194 196 199 201 203 203 204 204 204 203 203 204 204 205 205 205 204 203 203 205 205 204 203 202 202 201 199 198 197 198 199 201 203 204 204 204 205 206 206 207 207 208 209 210 210 211 210 209
314 313 308 292 268 245 227 214 205 198 193 190 188 187 187 187 189 189 190 191 191 192 194 197 199 200 200 201 202 203 203 204 204 205 204 204 204 203 203 204 205 205 204 202 201 201 199 196 195 195 196 197 199 200 201 201 202 203 205 206 206 206 206 207 207 208 209 209 210
316 314 308 290 262 238 221 209 200 194 190 188 187 186 186 186 188 189 190 191 191 192 194 196 198 199 200 202 203 205 207 208 207 206 204 204 204 203 203 204 205 205 203 201 200 199 197 194 193 193 195 196 197 197 197 198 199 201 203 205 206 206 206 206 206 207 207 208 209
317 315 306 284 254 231 215 205 197 192 189 188 188 188 188 188 188 190 192 194 194 194 196 198 200 202 205 207 207 208 209 210 209 206 205 204 204 205 205 204 204 204 202 199 198 196 195 193 192 194 196 197 196 195 195 195 197 199 201 203 204 205 205 206 206 206 206 206 207
321 316 302 276 247 225 212 203 197 194 192 190 190 190 190 191 191 193 197 199 200 201 201 203 205 207 208 209 208 208 208 208 207 206 205 204 205 206 206 204 203 202 200 197 196 195 193 192 193 195 198 198 197 195 194 194 195 197 199 201 201 202 203 204 204 204 204 204 206
328 317 296 265 239 223 211 203 199 197 196 194 192 192 193 195 196 199 202 203 205 207 208 208 209 209 208 207 206 206 205 205 204 204 204 205 206 206 206 204 202 199 197 196 195 194 193 192 193 196 198 199 197 196 195 194 194 194 195 197 198 199 200 201 202 202 202 202 204
334 318 288 255 235 221 212 205 200 199 198 196 195 196 197 198 199 200 201 202 204 206 207 208 207 206 205 204 204 203 202 201 201 202 203 204 205 205 204 203 199 197 195 194 194 193 192 192 194 197 198 198 197 196 195 194 192 191 192 194 195 195 196 197 199 200 200 200 202
Height
766 766 767 767 768 768 768 769 769 770 770 771 771 771 772 772 772 773 773 774 774 774 775 775 776 777 778 779 779 780 781 782 782 783 784 784 785 786 787 787 788 789 790 791 792 792 793 794 794 794 795 796 796 797 797 798 798 799 800 800 801 801 802 802 802 802 802 802 803
764 764 765 766 767 767 767 767 768 768 768 769 769 770 770 771 771 771 772 772 772 773 773 774 775 776 777 777 778 779 780 780 781 782 782 783 784 784 785 786 787 787 788 789 790 791 792 792 793 793 794 795 795 796 797 797 798 798 799 799 800 800 801 801 801 801 802 802 802
762 763 764 764 765 765 766 766 766 766 767 767 768 769 769 769 770 770 770 770 771 772 772 773 773 774 775 776 777 777 778 779 780 781 781 782 782 783 784 785 786 787 787 788 789 790 790 791 792 792 793 793 794 795 796 796 797 797 798 798 799 799 800 800 800 800 801 801 802
761 762 762 762 763 763 763 763 764 764 765 766 767 767 768 768 768 768 769 769 770 770 771 771 772 773 774 775 776 776 777 778 779 779 780 781 781 782 783 784 785 785 786 787 788 788 789 790 791 791 792 792 793 794 795 795 796 797 797 797 798 798 799 799 799 800 800 800 801
759 760 760 760 760 761 761 762 762 763 764 765 766 766 766 767 767 767 767 768 768 769 769 770 771 772 772 773 774 775 776 777 777 778 779 779 780 781 782 783 783 784 785 786 787 787 788 789 790 791 791 792 792 793 794 794 795 796 796 797 797 797 798 798 798 799 799 800 800
757 757 758 758 759 760 760 761 762 762 763 764 764 764 765 765 765 766 766 766 767 767 768 769 770 771 771 772 773 774 775 776 776 777 777 778 779 780 781 782 782 783 784 785 785 786 787 788 789 790 791 791 792 792 793 793 794 794 795 796 796 797 797 797 797 798 798 799 799
756 756 757 757 758 758 759 760 761 762 762 762 762 762 762 763 763 764 764 764 765 766 767 768 769 769 770 771 772 772 773 774 775 776 776 777 778 779 780 781 782 782 783 783 784 785 786 787 788 789 789 790 791 791 792 792 793 793 794 794 795 795 796 796 797 797 797 798 798
755 755 756 756 757 757 758 759 759 760 761 761 761 760 761 761 762 762 763 764 764 765 766 767 767 768 769 769 770 771 772 773 773 774 775 776 777 777 779 780 780 781 782 782 783 784 785 786 787 787 788 789 789 790 791 791 792 792 793 793 794 794 795 795 796 796 797 797 798
753 754 754 755 756 756 757 757 758 758 759 758 758 759 759 760 761 761 762 762 763 764 764 765 766 767 767 768 769 770 770 771 772 773 774 775 776 777 777 778 779 780 780 781 782 783 784 785 785 786 787 787 788 789 790 790 791 792 792 792 793 793 794 794 795 796 796 797 797
752 752 753 753 754 755 755 756 757 757 757 757 757 757 758 758 759 760 760 761 762 762 763 764 765 766 766 767 767 768 769 770 771 772 772 773 774 775 776 777 777 778 779 780 781 782 783 784 784 785 786 787 787 788 788 789 790 791 791 792 792 792 793 794 794 795 796 796 797
750 751 751 752 752 753 754 755 755 755 755 755 755 756 757 757 757 758 759 760 761 761 762 762 763 764 765 766 766 767 768 769 770 771 771 772 773 773 774 775 776 777 777 778 780 781 782 783 783 784 785 786 787 787 788 788 789 790 790 791 791 792 792 793 793 794 795 795 796
748 749 750 751 751 752 752 753 753 753 753 753 754 754 755 755 756 757 758 758 759 759 760 761 762 762 763 764 765 766 767 768 769 770 770 771 772 772 773 774 774 775 776 777 778 779 781 781 782 783 784 785 786 787 787 787 788 789 789 790 790 791 792 792 793 793 794 795 795
747 748 749 749 750 750 751 751 751 751 752 752 752 752 753 754 754 755 756 757 757 758 758 760 761 761 762 763 764 765 766 767 768 768 769 770 771 772 772 773 773 774 775 776 777 777 778 779 780 781 782 783 784 785 786 787 787 787 788 788 789 790 791 791 792 793 793 794 795
746 747 747 747 748 749 749 749 749 749 750 750 750 751 752 752 753 754 755 755 756 756 757 758 759 760 761 762 762 763 764 766 767 767 768 769 770 771 771 772 772 773 774 775 775 776 777 778 778 779 780 782 782 783 784 785 786 786 787 787 788 789 789 790 791 792 793 793 794
744 745 745 746 747 747 747 747 747 747 747 748 748 749 750 751 752 752 753 753 754 755 756 757 758 758 759 761 761 762 763 764 765 767 767 768 769 770 770 771 772 772 773 774 774 775 776 777 777 778 779 780 781 782 783 784 785 785 786 786 787 788 789 790 790 791 792 792 793
742 743 743 744 745 745 745 745 745 746 746 746 747 747 749 749 750 751 751 752 753 754 755 755 756 757 758 759 760 762 762 763 764 765 766 767 768 769 769 770 770 771 772 773 773 774 775 776 777 778 778 779 780 781 782 783 783 784 785 786 786 787 788 789 790 791 791 792 792
740 741 741 742 742 742 742 743 743 743 744 744 745 746 747 748 748 749 750 750 751 752 753 754 755 756 757 758 759 760 762 762 763 764 765 766 767 767 768 768 769 770 771 772 772 774 775 776 777 777 778 779 780 780 781 782 783 783 784 785 786 787 788 788 789 790 791 792 792
738 738 739 739 740 740 740 741 741 742 742 743 743 744 745 746 747 747 748 749 750 751 751 752 753 755 756 757 758 759 760 761 762 763 763 764 765 766 766 767 768 769 770 771 772 773 774 775 776 777 778 779 779 780 781 781 782 782 783 784 785 787 787 788 789 790 790 791 792
735 736 737 737 737 737 738 738 739 740 740 741 742 743 743 744 745 746 747 747 748 749 750 751 752 753 754 755 756 757 758 759 760 761 762 763 764 764 765 766 767 768 769 770 771 772 773 774 775 776 777 778 779 780 780 781 782 782 783 784 785 786 787 788 789 789 790 791 792
733 734 734 734 735 735 736 737 737 738 739 740 741 741 742 742 743 744 745 745 746 747 749 750 751 752 753 754 755 756 757 758 759 760 760 761 762 763 764 765 766 767 768 769 770 772 772 774 775 776 777 777 778 779 779 780 781 782 783 784 785 786 786 787 788 789 790 791 791
732 732 732 733 733 734 734 735 736 736 737 738 739 739 740 741 742 742 743 744 745 746 747 748 749 750 751 752 754 755 756 757 757 758 759 760 761 762 763 764 765 766 767 768 770 771 772 773 774 775 776 776 777 778 778 779 780 781 782 783 784 785 786 787 788 789 789 790 791
730 731 731 732 732 732 733 733 734 735 736 737 737 738 738 739 740 741 741 742 743 745 745 746 747 748 749 751 752 753 754 755 756 757 758 759 760 761 762 763 764 765 766 767 768 770 771 772 773 774 775 775 776 777 778 779 780 781 782 782 783 784 785 787 787 788 789 790 790
729 730 730 731 731 731 732 732 733 733 734 735 735 736 737 737 738 739 740 742 742 743 744 745 746 747 748 749 750 752 753 754 755 756 757 758 759 760 761 762 763 764 765 766 767 768 769 771 772 773 774 775 776 777 777 778 779 780 781 782 782 784 785 786 787 788 789 789 790
728 729 729 729 730 730 730 731 731 732 732 733 734 734 735 736 737 738 739 740 741 742 743 744 745 746 747 748 750 751 752 753 754 755 756 757 758 759 760 761 762 763 764 765 766 767 768 769 770 772 773 774 775 776 777 777 778 779 780 781 782 783 784 785 786 787 788 789 790
727 727 728 728 728 728 729 729 730 730 731 732 732 733 734 735 736 737 738 739 740 741 742 743 744 746 747 748 749 750 751 752 753 754 755 757 757 758 759 760 761 762 763 764 765 766 767 768 769 770 772 773 774 775 776 777 778 778 779 780 781 782 783 784 786 787 787 788 789
726 726 726 727 727 727 727 728 728 729 729 730 731 732 733 734 735 736 737 738 739 740 742 743 744 745 747 747 749 750 751 752 752 753 754 755 757 757 758 759 760 761 762 762 763 765 766 767 768 769 771 772 773 774 775 776 777 778 778 779 780 781 782 783 784 785 786 787 788
725 725 725 725 726 726 726 726 727 727 728 729 730 731 732 733 734 735 736 737 738 740 741 742 743 744 746 747 748 749 750 751 752 752 753 754 755 756 757 758 758 759 760 761 762 763 765 766 767 769 770 771 772 773 774 775 776 777 777 778 779 780 781 782 783 784 785 786 787
724 724 724 724 724 724 725 725 726 726 727 728 729 730 731 732 733 734 735 736 737 739 740 741 742 744 745 746 747 748 749 750 751 752 752 753 754 755 756 756 757 757 758 760 761 762 763 765 766 768 769 770 771 772 773 774 775 776 777 777 778 779 780 781 782 783 784 785 786
723 723 723 723 723 723 723 724 725 725 726 727 728 729 730 731 732 733 734 735 737 738 739 740 742 743 744 745 746 747 748 749 750 750 751 752 753 754 754 755 755 756 757 758 760 761 762 763 765 767 768 769 770 771 772 773 774 775 776 777 777 778 779 781 782 782 783 784 785
722 722 722 722 722 722 722 723 723 724 725 726 727 728 729 730 731 732 733 734 735 737 737 739 740 742 742 743 745 746 747 748 748 749 750 751 752 752 753 754 754 755 756 757 758 759 761 762 764 765 767 768 769 771 772 773 774 774 775 776 777 778 779 781 782 782 783 784 785
722 722 721 721 721 721 722 722 723 724 725 725 726 727 728 729 730 731 732 733 734 735 737 738 739 740 741 742 743 745 746 746 747 748 749 749 750 751 752 752 753 754 755 756 757 758 759 761 762 764 766 767 768 769 771 772 773 774 775 776 777 778 779 781 782 783 783 784 785
721 721 721 720 720 720 721 722 722 723 724 725 726 727 727 728 729 730 731 732 733 735 736 737 738 739 740 742 742 743 744 745 746 747 747 748 748 749 750 751 752 753 754 755 756 757 758 760 761 763 764 766 767 768 769 770 772 773 774 776 777 778 779 780 782 782 783 784 785
721 720 720 720 720 720 720 721 722 722 723 724 725 726 727 727 729 730 731 732 733 734 735 736 737 738 739 740 741 742 742 743 744 745 746 747 747 748 749 750 752 752 753 754 755 756 757 759 760 762 763 764 766 767 767 769 770 772 773 774 775 777 778 779 780 782 783 784 784
720 720 720 720 720 720 720 720 721 722 722 723 724 725 726 727 728 729 730 732 732 733 734 735 736 737 737 738 739 740 741 742 743 744 745 746 746 747 748 749 750 751 752 753 754 755 757 758 759 761 762 763 764 765 767 768 769 770 771 772 773 775 776 778 779 780 782 783 784
720 719 719 719 719 720 720 720 721 721 722 723 724 725 726 727 727 728 729 731 732 733 734 735 735 736 737 738 738 739 740 741 742 742 743 744 745 746 747 748 749 750 751 752 753 754 755 757 758 759 761 762 763 764 766 767 768 769 770 771 772 773 775 776 777 779 781 782 783
719 719 719 719 719 719 720 720 721 721 722 722 723 724 725 726 727 728 729 730 731 732 734 735 736 737 737 738 738 739 739 740 741 742 742 743 744 745 746 747 748 749 750 751 752 753 755 756 757 758 760 761 762 764 765 767 767 769 770 771 772 772 774 775 776 778 779 781 782
719 719 719 719 719 719 720 720 721 721 722 722 723 724 725 726 727 728 729 730 731 732 733 734 735 735 736 737 737 738 739 739 740 740 741 742 742 743 745 746 747 748 749 750 752 752 754 755 757 758 759 760 761 763 764 766 767 768 769 771 772 772 773 774 775 777 778 779 781
719 718 718 719 719 719 720 720 721 721 722 722 723 724 725 726 727 727 728 729 730 731 732 733 733 734 735 735 736 737 737 738 739 739 739 740 741 742 743 745 746 747 748 749 751 752 753 755 756 757 757 759 760 762 763 764 766 767 768 770 771 772 773 774 775 776 777 778 780
718 718 718 718 719 719 719 720 720 721 722 722 723 724 725 725 726 727 727 728 729 729 730 731 732 733 734 735 736 736 737 737 737 738 738 739 740 741 742 744 745 746 747 749 750 751 752 754 755 756 757 758 759 760 762 763 764 766 767 769 770 771 772 773 774 776 777 777 779
718 718 718 718 719 719 719 720 720 721 722 722 723 723 724 725 725 726 726 727 727 728 729 730 731 732 733 734 735 736 736 736 737 737 738 739 740 741 742 743 744 746 747 748 749 751 752 753 754 755 756 757 758 759 761 762 763 764 766 767 769 770 771 772 774 775 776 777 778
718 718 718 719 719 719 719 720 720 721 722 722 722 723 724 724 725 725 726 726 727 727 728 728 729 731 732 733 734 735 735 736 736 737 737 739 740 741 742 743 744 745 747 748 749 751 752 752 753 754 755 756 757 758 759 761 762 763 764 766 767 768 770 771 773 774 775 776 777